Find Kosmos-569

NORAD ID: 6680 Int'l Des: 1973-037 Owner: GUKOSR Country: SU operational
LEOCIRCULAR

Aktuelle Ansicht

3D-Globus wird geladen...

Über Kosmos-569

Beschreibung wird geladen...

Nächste Überflüge

Passes for default location (London). Set your location on the main map for personalized predictions.

Höhenverlauf

Loading altitude history...

Zweizeiliger Elementsatz

1 6680U 73037F 26151.10884742 -.00000008 00000-0 51943-4 0 9994
2 6680 74.0159 157.5201 0079439 320.1905 107.7446 12.61178448438917
Epoch: 31. Mai 2026 • Age: 13 hours

Aktueller Status

Höhe 1403.2 km
Geschwindigkeit 7.18 km/s
Subsatellitenpunkt -74.04°S, 44.39°W
Typ other

Most Searched